Change the Weather History Date:

Monday, February 24, 2014

  Actual Average Record
Temperature  
Mean Temperature 56 °F -  
Max Temperature 68 °F 65 °F 86 °F (1954)
Min Temperature 44 °F 43 °F 30 °F (1975)
Degree Days  
Heating Degree Days 9    
Growing Degree Days 6 (Base 50)    
Moisture  
Dew Point 47 °F    
Average Humidity 86    
Maximum Humidity 100    
Minimum Humidity 45    
Precipitation  
Precipitation 0.00 in - - ()
Sea Level Pressure  
Sea Level Pressure 29.99 in    
Wind  
Wind Speed 2 mph (NW)    
Max Wind Speed 10 mph    
Max Gust Speed -    
Visibility 4 miles    
Events Fog    
Averages and records for this station are not official NWS values.
T = Trace of Precipitation, MM = Missing Value Source: NWS Daily Summary

Daily Weather History Graph

Daily Weather History Graph

Search for Another Location

Airport or City:

Trip Planner

Search our weather history database for the weather conditions in past years. The results will help you decide how hot, cold, wet, or windy it might be!

Date:

Astronomy

Feb. 24, 2014 Rise Set
Actual Time 6:38 AM PST 5:53 PM PST
Civil Twilight 6:12 AM PST 6:19 PM PST
Nautical Twilight 5:43 AM PST 6:48 PM PST
Astronomical Twilight 5:13 AM PST 7:18 PM PST
Moon 2:35 AM PST (2/24) 1:06 PM PST (2/24)
Length of Visible Light 12h 06m
Length of Day
11h 15m
Waning Crescent, 27% of the Moon is Illuminated
Feb 24
Waning Crescent
Mar 1
New
Mar 8
First Quarter
Mar 16
Full
Mar 23
Last Quarter

Hourly Weather History & Observations

Time (PST) Temp. Windchill Dew Point Humidity Pressure Visibility Wind Dir Wind Speed Gust Speed Precip Events Conditions
12:56 AM 48.9 °F - 48.0 °F 97% 29.99 in 0.5 mi Calm Calm - N/A Fog Fog
1:14 AM 48.2 °F - 46.4 °F 93% 29.99 in 0.2 mi Calm Calm - N/A Fog Fog
1:56 AM 48.9 °F - 48.0 °F 97% 29.99 in 0.2 mi Calm Calm - N/A Fog Fog
2:56 AM 48.0 °F - 46.9 °F 96% 29.98 in 0.2 mi Calm Calm - N/A Fog Fog
3:56 AM 46.9 °F - 46.0 °F 97% 29.98 in 0.5 mi Calm Calm - N/A Fog Fog
4:17 AM 46.4 °F - 46.4 °F 100% 29.98 in 0.2 mi Calm Calm - N/A Fog Fog
4:56 AM 46.9 °F - 45.0 °F 93% 29.99 in 0.2 mi ENE 4.6 mph - N/A Fog Fog
5:56 AM 44.1 °F 40.8 °F 43.0 °F 96% 29.99 in 0.8 mi East 5.8 mph - N/A   Mist
6:56 AM 45.0 °F 43.5 °F 43.0 °F 93% 30.01 in 0.2 mi East 3.5 mph - N/A Fog Fog
7:56 AM 46.0 °F - 45.0 °F 96% 30.01 in 0.2 mi Calm Calm - N/A Fog Fog
8:26 AM 46.4 °F - 44.6 °F 93% 30.00 in 0.5 mi Calm Calm - N/A Fog Fog
8:42 AM 46.4 °F - 46.4 °F 100% 30.00 in 1.8 mi Calm Calm - N/A   Mostly Cloudy
8:45 AM 48.2 °F - 46.4 °F 93% 30.00 in 3.0 mi Calm Calm - N/A   Mostly Cloudy
8:56 AM 48.0 °F - 46.0 °F 93% 30.01 in 2.0 mi Calm Calm - N/A   Mostly Cloudy
8:58 AM 48.2 °F - 46.4 °F 93% 30.00 in 7.0 mi Calm Calm - N/A   Scattered Clouds
9:56 AM 57.0 °F - 46.9 °F 69% 30.01 in 7.0 mi Calm Calm - N/A   Clear
10:56 AM 63.0 °F - 45.0 °F 52% 30.00 in 10.0 mi Calm Calm - N/A   Clear
11:56 AM 68.0 °F - 46.0 °F 45% 29.97 in 10.0 mi Variable 5.8 mph - N/A   Clear
12:56 PM 66.9 °F - 48.0 °F 51% 29.96 in 10.0 mi WNW 6.9 mph - N/A   Clear
1:56 PM 66.9 °F - 48.9 °F 52% 29.94 in 10.0 mi NW 6.9 mph - N/A   Clear
2:56 PM 64.9 °F - 48.0 °F 54% 29.94 in 10.0 mi NW 10.4 mph - N/A   Clear
3:56 PM 64.9 °F - 48.9 °F 56% 29.93 in 10.0 mi NW 8.1 mph - N/A   Clear
4:56 PM 61.0 °F - 48.0 °F 62% 29.94 in 10.0 mi West 4.6 mph - N/A   Clear
5:56 PM 55.0 °F - 48.0 °F 77% 29.96 in 10.0 mi WNW 5.8 mph - N/A   Clear
6:56 PM 51.1 °F - 46.9 °F 86% 29.98 in 9.0 mi NW 6.9 mph - N/A   Clear
7:56 PM 50.0 °F - 46.9 °F 89% 30.00 in 8.0 mi NW 3.5 mph - N/A   Clear
8:26 PM 50.0 °F - 46.4 °F 87% 30.00 in 9.0 mi Calm Calm - N/A   Scattered Clouds
8:35 PM 50.0 °F - 46.4 °F 87% 30.00 in 10.0 mi Calm Calm - N/A   Mostly Cloudy
8:56 PM 50.0 °F - 46.9 °F 89% 30.00 in 8.0 mi Variable 3.5 mph - N/A   Overcast
9:06 PM 50.0 °F - 48.2 °F 94% 30.00 in 5.0 mi Calm Calm - N/A   Overcast
9:48 PM 50.0 °F - 46.4 °F 87% 29.99 in 1.8 mi Calm Calm - N/A   Overcast
9:56 PM 50.0 °F - 48.0 °F 93% 29.99 in 1.5 mi Calm Calm - N/A   Overcast
10:36 PM 50.0 °F - 48.2 °F 94% 29.99 in 0.8 mi Calm Calm - N/A   Mist
10:43 PM 50.0 °F - 48.2 °F 94% 29.99 in 1.0 mi Calm Calm - N/A   Overcast
10:53 PM 48.2 °F - 46.4 °F 93% 30.00 in 0.5 mi Calm Calm - N/A Fog Fog
10:56 PM 48.9 °F - 48.0 °F 97% 30.00 in 0.5 mi Calm Calm - N/A Fog Fog
11:18 PM 48.2 °F - 48.2 °F 100% 30.00 in 0.2 mi Calm Calm - N/A Fog Fog
11:26 PM 48.2 °F - 48.2 °F 100% 30.00 in 0.5 mi South 4.6 mph - N/A Fog Fog
11:47 PM 48.2 °F - 48.2 °F 100% 30.01 in 2.0 mi Calm Calm - N/A   Overcast
11:56 PM 48.9 °F - 46.9 °F 93% 30.01 in 3.0 mi Calm Calm - N/A   Overcast